Address 0x8a83716acd66d9e1fb18c9b79540b72e04f80ac0 8

 
  Note: Our ether balance display is temporarily unavailable. Please check back later.
Txn Hash Method
Block
From
To
Value [Txn Fee]
0x86929306b7aa08b66c74609b783bb84f4bb94b366b1fbf4ad145f8cac5646bacSwap And Send48782272022-01-21 23:31:052 days 10 hrs ago0x8a83716acd66d9e1fb18c9b79540b72e04f80ac0OUT 0x33ceb27b39d2bb7d2e61f7564d3df293440204170.7 ETH0.001003116342 ETH
0xd294dfe10c64fc73d9d014f0341c95d5c6e7291417506f3f7fc7c90a25ead7f6Swap Exact Token...48757582022-01-21 22:52:442 days 10 hrs ago0x8a83716acd66d9e1fb18c9b79540b72e04f80ac0OUT SushiSwap: Router0 ETH0.001086257825 ETH
0x5d92365543ae82ec67c22f439ca642f9477c80cd352418e123a8bb1526ba0572Swap Exact Token...48757212022-01-21 22:52:442 days 10 hrs ago0x8a83716acd66d9e1fb18c9b79540b72e04f80ac0OUT SushiSwap: Router0 ETH0.001082423827 ETH
0x8ecdf92e6783b7f4b6deac5bd913a24feeac99da2eeba43893e06ae22a554a7dHarvest All48755792022-01-21 22:51:112 days 10 hrs ago0x8a83716acd66d9e1fb18c9b79540b72e04f80ac0OUT Treasure DAO: Mine0 ETH0.000690189118 ETH
0x6e520a67fded717d0e7dbc07ea85db933fba2121204dbe3b1d8327ff5cd443cdHarvest48755242022-01-21 22:51:112 days 10 hrs ago0x8a83716acd66d9e1fb18c9b79540b72e04f80ac0OUT 0xf4d73326c13a4fc5fd7a064217e12780e9bd62c30 ETH0.000806250155 ETH
0x106e4bb1573b0b26045aeac3b22758b2c6caa3dcc755510d3eee84fc01716cecSwap And Send48658552022-01-21 17:57:192 days 15 hrs ago0x8a83716acd66d9e1fb18c9b79540b72e04f80ac0OUT 0x33ceb27b39d2bb7d2e61f7564d3df293440204171.41 ETH0.001289249175 ETH
0x4bb8e00666d6ead33ba694e35c2900fce045265d48a13bdf3e99a1baf2d9bea4Swap Exact Token...48658302022-01-21 17:56:442 days 15 hrs ago0x8a83716acd66d9e1fb18c9b79540b72e04f80ac0OUT SushiSwap: Router0 ETH0.001327393758 ETH
0xa2ff8ba355b4365d29bd2b40dac5089337ed5b01063990ba34f9e60b9216786eHarvest48658042022-01-21 17:56:042 days 15 hrs ago0x8a83716acd66d9e1fb18c9b79540b72e04f80ac0OUT 0xf4d73326c13a4fc5fd7a064217e12780e9bd62c30 ETH0.000942894142 ETH
0x4eac88d01943af1c99fff8470f13798ba0a9df3edcb5b564526f6a45ab39eb3fHarvest All48657932022-01-21 17:55:252 days 15 hrs ago0x8a83716acd66d9e1fb18c9b79540b72e04f80ac0OUT 0xd300322832765fee6b910d314f2c2d879427226f0 ETH0.000941014024 ETH
0x411efb8903d9f3d49a5869f0f4f982e2911654acbe4cd1e40e1d33a7d9df51b0Harvest All48657842022-01-21 17:55:252 days 15 hrs ago0x8a83716acd66d9e1fb18c9b79540b72e04f80ac0OUT Treasure DAO: Mine0 ETH0.000888140772 ETH
0x7a6ea07fee75ec47e578df814b7ce97e40db6cc18b3ab2da6cc767f7ae1e8141Deposit48578972022-01-21 12:52:022 days 20 hrs ago0x8a83716acd66d9e1fb18c9b79540b72e04f80ac0OUT 0xf4d73326c13a4fc5fd7a064217e12780e9bd62c30 ETH0.00096856757 ETH
0xec2c5cfdaa05f72389cc102d665610e60210e62863be9a8cb53673878b88f64bWithdraw And Har...48576682022-01-21 12:45:382 days 21 hrs ago0x8a83716acd66d9e1fb18c9b79540b72e04f80ac0OUT 0xf4d73326c13a4fc5fd7a064217e12780e9bd62c30 ETH0.001232341878 ETH
0xacaa23290fb944126e92d58b9f4803b6f11be958ad9f81487caef0b36a9c76f5Swap And Send48528452022-01-21 8:44:573 days 1 hr ago0x8a83716acd66d9e1fb18c9b79540b72e04f80ac0OUT 0x33ceb27b39d2bb7d2e61f7564d3df293440204171.9 ETH0.001268457226 ETH
0xcf37cb38b11c648d2e95b5b4dd161ffb6f518704ab5f801c8333a14e40542896Swap Exact Token...48528292022-01-21 8:43:573 days 1 hr ago0x8a83716acd66d9e1fb18c9b79540b72e04f80ac0OUT SushiSwap: Router0 ETH0.001304801383 ETH
0x9e8381f0ae34a9abf5c7641a9750cf773b74650fb3cb99112e7c99f0cfe06c31Harvest All48527862022-01-21 8:41:213 days 1 hr ago0x8a83716acd66d9e1fb18c9b79540b72e04f80ac0OUT Treasure DAO: Mine0 ETH0.000887103155 ETH
0x8f75f0f11154b4be5a415662b311165595a5acbccea0e30d3367d62ccb92b46aHarvest48527752022-01-21 8:41:213 days 1 hr ago0x8a83716acd66d9e1fb18c9b79540b72e04f80ac0OUT 0xf4d73326c13a4fc5fd7a064217e12780e9bd62c30 ETH0.000945511678 ETH
0x9d38716356403032c4322ca0218b90a2e38cccd3afb06ac78cd2b50f0eaf0b2dDeposit48338772022-01-20 21:09:093 days 12 hrs ago0x8a83716acd66d9e1fb18c9b79540b72e04f80ac0OUT 0xf4d73326c13a4fc5fd7a064217e12780e9bd62c30 ETH0.000872353296 ETH
0x997edf25b6fdd03fc68e4d2846fa956c98a3002ea612d2f524a49f36c7cf6aadAdd Liquidity ET...48338742022-01-20 21:09:093 days 12 hrs ago0x8a83716acd66d9e1fb18c9b79540b72e04f80ac0OUT SushiSwap: Router3.08 ETH0.001119247609 ETH
0xd175b6b9fe054335f3fe9b03e45c2c0bc85a74938854b7dac31b17425a1b17daSwap Exact Token...48338632022-01-20 21:08:343 days 12 hrs ago0x8a83716acd66d9e1fb18c9b79540b72e04f80ac0OUT SushiSwap: Router0 ETH0.001158937778 ETH
0xb1c0887834b29460e56e073562208f81a2ab29caa6dd34d18d34b095ad72c082Harvest All48338472022-01-20 21:07:103 days 12 hrs ago0x8a83716acd66d9e1fb18c9b79540b72e04f80ac0OUT Treasure DAO: Mine0 ETH0.000791217633 ETH
0xac34338756d0b16b43617c94d3db69d3c54a1d229ea24c90de7d41872a22db5eHarvest48338392022-01-20 21:07:103 days 12 hrs ago0x8a83716acd66d9e1fb18c9b79540b72e04f80ac0OUT 0xf4d73326c13a4fc5fd7a064217e12780e9bd62c30 ETH0.000841703342 ETH
0x3747be2fa394f7a66db2cc628b1e4370cfa3f6f7a7fd31d5ccafc11b5091fdf6Deposit47874792022-01-19 9:31:275 days 16 mins ago0x8a83716acd66d9e1fb18c9b79540b72e04f80ac0OUT 0xf4d73326c13a4fc5fd7a064217e12780e9bd62c30 ETH0.000841323403 ETH
0x155d2e3ffc9ad20f1c748bf7679b33174cef6596bfa31d82c946d83a06f05321Deposit47874652022-01-19 9:30:115 days 18 mins ago0x8a83716acd66d9e1fb18c9b79540b72e04f80ac0OUT 0xf4d73326c13a4fc5fd7a064217e12780e9bd62c30 ETH0.000844234025 ETH
0x16ed1b40f9a1d19b94df0058d62fd8f64bdc5b37f359e50e94f664782ee29716Deposit47874582022-01-19 9:29:155 days 19 mins ago0x8a83716acd66d9e1fb18c9b79540b72e04f80ac0OUT 0xf4d73326c13a4fc5fd7a064217e12780e9bd62c30 ETH0.000844439508 ETH
0xd5a6b16fff9d9d94b98db7d08f7843cc2d26110018d67462c10fd135b2ed34d6Add Liquidity ET...47874502022-01-19 9:29:155 days 19 mins ago0x8a83716acd66d9e1fb18c9b79540b72e04f80ac0OUT SushiSwap: Router2.022400739022764 ETH0.001086289869 ETH
[ Download CSV Export 
Parent Txn Hash Block From To Value
Loading

Contract Name:
0 ETH

Compiler Version
0

Optimization Enabled:
0 ETH

Other Settings:
-NA-
Block Transaction Gas Used Reward
Age Block Fee Address BC Fee Address Voting Power Jailed Incoming
Block Uncle Number Difficulty Gas Used Reward
Loading
Loading
Make sure to use the "Vote Down" button for any spammy posts, and the "Vote Up" for interesting conversations.